Flag for Russia Weather past 2 weeks in Khanty-Mansiysk, Russia

Now
59 °F

Passing clouds.


Feels Like: 58 °F
Forecast: 50 / 64 °F
Wind: 6 mph from Southeast

Location: Hanty-Mansijsk

Current Time: May 25, 2015 at 2:58:08 PM

Latest Report: May 25, 2015 at 2:30 PM


Visibility: N/A

Pressure: 30.01 "Hg

Humidity: 36%

Dew point: 32 °F

Location of Khanty-MansiyskLocation

Historic Weather in Khanty-Mansiysk — Graph

°F

Khanty-Mansiysk temperature yesterday

Maximum temperature yesterday: 54 °F (at 3:00 PM)
Minimum temperature yesterday: 45 °F (at 11:30 PM)
Average temperature yesterday: 50 °F

Past Weeks' High & Low Weather Summary

 TemperatureHumidityPressure
High77 °F (May 16, 1:30 PM)100% (May 19, 2:30 PM)30.21 "Hg (May 19, 2:30 PM)
Low36 °F (May 11, 2:00 AM)18% (May 13, 4:00 PM)29.53 "Hg (May 19, 10:30 AM)
Average56 °F53%29.86 "Hg
* Reported May 10 1:00 PM — May 25 1:30 PM, Khanty-Mansiysk, Weather by CustomWeather, © 2015

Note: Actual official high and low records may vary slightly from our data, if they occured in-between our weather recording intervals... More about our weather records

Advertising

Khanty-Mansiysk weather history for previous 24 hours

 ConditionsComfort  
Time TempWeatherWind HumidityBarometerVisibility
1:30 PM
Mon, May 25
59 °FPassing clouds.6 mph34%30.04 "HgN/A
1:00 PM59 °FPassing clouds.3 mph39%30.04 "HgN/A
12:30 PM57 °FPassing clouds.6 mph41%30.04 "HgN/A
12:00 PM57 °FPassing clouds.3 mph41%30.07 "HgN/A
11:30 AM57 °FSunny.3 mph41%30.07 "Hg10 mi
11:00 AM55 °FSunny.1 mph41%30.07 "Hg10 mi
10:30 AM54 °FPassing clouds.3 mph44%30.07 "HgN/A
10:00 AM54 °FPassing clouds.3 mph41%30.07 "HgN/A
9:30 AM52 °FPassing clouds.3 mph44%30.07 "HgN/A
8:30 AM52 °FSunny.1 mph50%30.09 "Hg10 mi
8:00 AM50 °FPassing clouds.6 mph54%30.09 "HgN/A
7:30 AM50 °FPassing clouds.3 mph54%30.09 "HgN/A
7:00 AM50 °FSunny.1 mph58%30.09 "Hg10 mi
6:30 AM50 °FSunny.1 mph54%30.09 "Hg10 mi
6:00 AM48 °FSunny.No wind71%30.09 "Hg10 mi
5:30 AM45 °FSunny.No wind87%30.09 "Hg10 mi
5:00 AM43 °FSunny.No wind87%30.09 "Hg10 mi
4:30 AM41 °FSunny.No wind87%30.09 "Hg10 mi
4:00 AM39 °FClear.No wind87%30.07 "Hg10 mi
3:30 AM37 °FClear.No wind93%30.07 "Hg10 mi
3:00 AM39 °FClear.No wind87%30.07 "Hg10 mi
2:30 AM37 °FClear.1 mph93%30.07 "Hg10 mi
2:00 AM39 °FClear.No wind87%30.07 "Hg10 mi
1:30 AM41 °FClear.No wind81%30.07 "Hg10 mi
1:00 AM39 °FClear.No wind87%30.07 "Hg10 mi
12:30 AM41 °FClear.No wind81%30.07 "Hg10 mi
12:00 AM43 °FClear.No wind81%30.04 "Hg10 mi
11:30 PM
Sun, May 24
45 °FClear.No wind71%30.04 "Hg10 mi
11:00 PM46 °FClear.No wind66%30.04 "Hg10 mi
10:30 PM48 °FClear.1 mph58%30.04 "Hg10 mi
10:00 PM50 °FSunny.3 mph54%30.04 "Hg10 mi
9:30 PM52 °FSunny.1 mph50%30.04 "Hg10 mi
9:00 PM52 °FSunny.3 mph50%30.01 "Hg10 mi
8:30 PM54 °FSunny.3 mph44%30.01 "Hg10 mi
8:00 PM54 °FSunny.6 mph47%30.01 "Hg10 mi
7:30 PM54 °FSunny.3 mph44%30.01 "Hg10 mi
7:00 PM54 °FSunny.1 mph47%30.01 "Hg10 mi
6:30 PM54 °FPassing clouds.3 mph51%30.01 "HgN/A
6:00 PM54 °FPassing clouds.6 mph47%29.98 "HgN/A
5:30 PM54 °FPassing clouds.3 mph51%29.98 "HgN/A
5:00 PM54 °FPassing clouds.6 mph51%29.98 "HgN/A
4:30 PM54 °FScattered clouds.3 mph51%30.01 "HgN/A
4:00 PM52 °FScattered clouds.6 mph54%29.98 "HgN/A
3:30 PM54 °FScattered clouds.6 mph47%29.98 "HgN/A
3:00 PM54 °FScattered clouds.6 mph51%29.98 "HgN/A
2:30 PM52 °FScattered clouds.6 mph54%29.98 "HgN/A
2:00 PM52 °FScattered clouds.6 mph54%29.98 "HgN/A
Weather by CustomWeather, © 2015

See weather overviewHow to use our weather pages